Flag for U.S.A. Weather past 2 weeks in Huntington Beach, California, U.S.A.

Now
70 °F

Overcast.


Feels Like: 70 °F
Forecast: 68 / 77 °F
Wind: 5 mph from Southwest

Location: John Wayne Airport-Orange County Airport

Current Time: Aug 31, 2015 at 10:59:21 PM

Latest Report: Aug 31, 2015 at 10:00 PM


Visibility: 10 mi

Pressure: 29.90 "Hg

Humidity: 78%

Dew point: 63 °F

Location of Huntington BeachLocation

Historic Weather in Huntington Beach — Graph

°F

Huntington Beach temperature yesterday

Maximum temperature yesterday: 82 °F (at 12:53 PM)
Minimum temperature yesterday: 70 °F (at 9:53 PM)
Average temperature yesterday: 75 °F

Past Weeks' High & Low Weather Summary

 TemperatureHumidityPressure
High91 °F (Aug 28, 11:53 AM)93% (Aug 26, 3:53 AM)29.98 "Hg (Aug 26, 3:53 AM)
Low67 °F (Aug 23, 1:53 AM)32% (Aug 28, 11:53 AM)29.80 "Hg (Aug 28, 6:53 PM)
Average74 °F72%29.89 "Hg
* Reported Aug 16 10:53 PM — Aug 31 10:00 PM, Huntington Beach, Weather by CustomWeather, © 2015

Note: Actual official high and low records may vary slightly from our data, if they occured in-between our weather recording intervals... More about our weather records

Advertising

Huntington Beach weather history for previous 24 hours

 ConditionsComfort  
Time TempWeatherWind HumidityBarometerVisibility
10:00 PM
Mon, Aug 31
70 °FOvercast.5 mph78%29.90 "Hg10 mi
7:53 PM71 °FScattered clouds.7 mph76%29.85 "Hg10 mi
6:53 PM71 °FScattered clouds.8 mph76%29.84 "Hg10 mi
5:53 PM73 °FPassing clouds.9 mph71%29.84 "Hg10 mi
4:53 PM74 °FPassing clouds.12 mph69%29.85 "Hg10 mi
3:53 PM76 °FSunny.13 mph64%29.85 "Hg10 mi
2:53 PM76 °FPassing clouds.12 mph62%29.87 "Hg10 mi
1:53 PM76 °FPassing clouds.15 mph62%29.88 "Hg10 mi
12:53 PM76 °FPassing clouds.12 mph62%29.90 "Hg10 mi
11:53 AM76 °FScattered clouds.13 mph64%29.90 "Hg10 mi
10:53 AM77 °FScattered clouds.10 mph60%29.91 "Hg10 mi
9:53 AM73 °FOvercast.5 mph71%29.91 "Hg10 mi
8:53 AM70 °FOvercast.5 mph79%29.90 "Hg10 mi
7:53 AM70 °FOvercast.7 mph79%29.88 "Hg10 mi
6:53 AM69 °FOvercast.8 mph81%29.87 "Hg10 mi
5:53 AM69 °FOvercast.6 mph81%29.85 "Hg10 mi
4:53 AM69 °FOvercast.3 mph84%29.84 "Hg10 mi
3:53 AM70 °FOvercast.7 mph81%29.84 "Hg10 mi
2:53 AM70 °FOvercast.7 mph84%29.84 "Hg10 mi
1:53 AM70 °FClear.5 mph84%29.84 "Hg10 mi
12:53 AM70 °FClear.3 mph84%29.84 "Hg10 mi
11:53 PM
Sun, Aug 30
70 °FClear.No wind84%29.85 "Hg10 mi
10:53 PM70 °FPassing clouds.6 mph84%29.85 "Hg7 mi
Weather by CustomWeather, © 2015

See weather overviewHow to use our weather pages